Regional Weather Roundup
Issued by NWS

Home | Current Version | Previous Version | Graphics & Text | Print | Product List | Glossary On
Versions: 1 2 3 4 5 6 7 8 9 10 11 12 13 14 15 16 17 18 19 20 21 22 23 24 25 26 27 28 29 30 31 32 33 34 35 36 37 38 39 40 41 42 43 44 45 46 47 48 49 50
000
ASUS45 KPSR 240400
RWRAZ

PRELIMINARY ARIZONA REGIONAL HOURLY WEATHER ROUNDUP
NATIONAL WEATHER SERVICE PHOENIX AZ
900 PM MST WED APR 23 2014

NOTE: FAIR INDICATES FEW OR NO CLOUDS BELOW 12,000 FEET WITH NO
SIGNIFICANT WEATHER AND/OR OBSTRUCTIONS TO VISIBILITY.

AZZ001>003-036-240500-
NORTHWEST ARIZONA

CITY           SKY/WX    TMP DP  RH WIND       PRES   REMARKS
KINGMAN        PTCLDY    56   6  13 NE7       29.96R
$$

AZZ004>008-015-016-018-240500-
NORTH CENTRAL ARIZONA

CITY           SKY/WX    TMP DP  RH WIND       PRES   REMARKS
GRAND CANYON   CLEAR     32   9  38 CALM      30.07R
WILLIAMS       CLEAR     39   9  28 S7        30.13R WCI  34
PRESCOTT       PTCLDY    54   8  16 NW7       29.99R
FLAGSTAFF      CLEAR     39  11  31 SW5       30.08R
PAYSON         PTCLDY    57   7  13 CALM      30.02R
PAGE           CLEAR     60   8  12 W7        29.97R
$$

AZZ009>014-017-240500-
NORTHEAST ARIZONA

CITY           SKY/WX    TMP DP  RH WIND       PRES   REMARKS
WINSLOW        NOT AVBL
SAINT JOHNS    CLEAR     48   5  17 W6        30.00R
WINDOW ROCK    CLEAR     47  10  22 N7        30.03R
SHOW LOW       CLEAR     45  10  24 CALM      30.07R
$$

AZZ023-240500-
GREATER PHOENIX AREA

CITY           SKY/WX    TMP DP  RH WIND       PRES   REMARKS
PHOENIX        PTCLDY    78  11   8 SW7       29.81R
LUKE AFB       NOT AVBL
DEER VALLEY    CLEAR     74  11   9 SW7       29.82R
SCOTTSDALE     CLEAR     77  14   9 SW6       29.84R
MESA-GATEWAY   CLEAR     72  21  15 SW3       29.86R
CHANDLER       PTCLDY    72  27  18 S8        29.83R
$$

AZZ027-028-240500-
SOUTHWEST MARICOPA COUNTY AND PINAL COUNTY

CITY           SKY/WX    TMP DP  RH WIND       PRES   REMARKS
CASA GRANDE    CLEAR     70  18  13 W6        29.86R
GILA BEND      CLEAR     72  12  10 SW6       29.84R
$$

AZZ503-504-507>509-240500-
SOUTHEAST ARIZONA

CITY           SKY/WX    TMP DP  RH WIND       PRES   REMARKS
TUCSON         CLEAR     72  10   9 NW6       29.92R
DAVIS-MONTHAN  CLEAR     70  13  11 NW7       29.90R
NOGALES        CLEAR     65  20  17 W5        29.97R
SIERRA VISTA   PTCLDY    63  18  17 W12       29.99R
SAFFORD        CLEAR     66   9  10 NW8       29.89R
$$

AZZ020-021-025-026-031-240500-
SOUTHWEST ARIZONA

CITY           SKY/WX    TMP DP  RH WIND       PRES   REMARKS
YUMA           NOT AVBL
$$

CAZ031-033-041-043-047-048-061-240500-
SOUTHERN CALIFORNIA

CITY           SKY/WX    TMP DP  RH WIND       PRES   REMARKS
DOWNTOWN L.A.  CLEAR     62  48  60 CALM      29.93R
L.A. AIRPORT   PTCLDY    62  50  64 W7        29.94R
SAN DIEGO      MOCLDY    64  52  64 NW5       29.97R
BURBANK        CLEAR     65  39  38 S3        29.93R
ONTARIO        MOCLDY    66  37  34 W10       29.94R
RIVERSIDE      CLEAR     65  43  44 W7        29.94R
PALM SPRINGS   CLEAR     78  40  25 NW14      29.85R
EL CENTRO NAS  PTCLDY    71  22  15 SW7       29.81R
IMPERIAL       PTCLDY    73  28  18 SW3       29.81R
BLYTHE         PTCLDY    77  12   8 W7        29.82R
$$

NVZ020-UTZ003-240500-
SOUTHERN NEVADA-UTAH

CITY           SKY/WX    TMP DP  RH WIND       PRES   REMARKS
LAS VEGAS      NOT AVBL
SALT LAKE CITY PTCLDY    44  23  43 E8        30.07R
$$

NMZ009-TXZ055-240500-
NEW MEXICO-WEST TEXAS

CITY           SKY/WX    TMP DP  RH WIND       PRES   REMARKS
ALBUQUERQUE    PTCLDY    57  16  20 NW7       29.91R
EL PASO        PTCLDY    76  21  12 NW21G33   29.84R
$$


........................KEY........................
SKY/WX - SKY CONDITION/WEATHER
TMP    - TEMPERATURE IN FAHRENHEIT
DP     - DEW POINT IN FAHRENHEIT
RH     - RELATIVE HUMIDITY IN PERCENT
WIND   - DIRECTION AND SPEED IN MILES PER HOUR (MPH)
VRB    - VARIABLE WIND DIRECTION
PRES   - MEAN SEA LEVEL PRESSURE IN INCHES OF MERCURY
         F - FALLING PRESSURE   R - RISING PRESSURE
         S - STEADY PRESSURE
VSB    - VISIBILITY IN MILES
HX     - HEAT INDEX IN FAHRENHEIT
WCI    - WIND CHILL INDEX IN FAHRENHEIT
TC     - TEMPERATURE IN CELSIUS WHICH IS ALSO KNOWN AS
         TEMPERATURE IN CENTIGRADE
AFB    - AIR FORCE BASE
         LUKE AFB IS LUKE AIR FORCE BASE
         DAVIS-MONTHAN IS DAVIS-MONTHAN AIR FORCE BASE
NAS    - NAVAL AIR STATION
         EL CENTRO NAS IS EL CENTRO NAVAL AIR STATION
N/A    - NOT AVAILABLE



USA.gov is the U.S. government's official web portal to all federal, state and local government web resources and services.